• In Belarus
  • List of Countries
  • For 7 days
  • Water Temperature
  • Satellite Maps
  • Weather Map
  • Weather Widgets
  • user-avatar
    Login

    Hourly Weather Ali Bayramli

    Today, 23 July, Sunday

    Time Temperature Precipitation Wind Pressure Humidity
    00:00 +30°C° 0 mm 2 mps 754 mmHg 47%
    01:00 +30°C° 0 mm 2 mps 754 mmHg 48%
    02:00 +29°C° 0 mm 2 mps 754 mmHg 48%
    03:00 +29°C° 0 mm 2 mps 754 mmHg 48%
    04:00 +29°C° 0 mm 1 mps 754 mmHg 47%
    05:00 +30°C° 0 mm 1 mps 754 mmHg 47%
    06:00 +30°C° 0 mm 1 mps 754 mmHg 46%
    07:00 +32°C° 0 mm 1 mps 754 mmHg 41%
    08:00 +33°C° 0 mm 1 mps 754 mmHg 37%
    09:00 +35°C° 0 mm 1 mps 754 mmHg 33%
    10:00 +36°C° 0 mm 1 mps 753 mmHg 29%
    11:00 +39°C° 0 mm 2 mps 753 mmHg 26%
    12:00 +40°C° 0 mm 2 mps 752 mmHg 23%
    13:00 +42°C° 0 mm 3 mps 752 mmHg 22%
    14:00 +42°C° 0 mm 4 mps 752 mmHg 21%
    15:00 +43°C° 0 mm 5 mps 752 mmHg 20%
    16:00 +41°C° 0 mm 5 mps 751 mmHg 22%
    17:00 +40°C° 0 mm 6 mps 751 mmHg 24%
    18:00 +39°C° 0 mm 6 mps 751 mmHg 27%
    19:00 +36°C° 0 mm 6 mps 752 mmHg 31%
    20:00 +35°C° 0 mm 5 mps 752 mmHg 35%
    21:00 +33°C° 0 mm 5 mps 752 mmHg 40%
    22:00 +33°C° 0 mm 5 mps 753 mmHg 41%
    23:00 +33°C° 0 mm 5 mps 753 mmHg 43%

    Tomorrow, 24 July, Monday

    Time Temperature Precipitation Wind Pressure Humidity
    00:00 +33°C° 0 mm 5 mps 753 mmHg 44%
    01:00 +32°C° 0 mm 6 mps 753 mmHg 45%
    02:00 +32°C° 0 mm 6 mps 753 mmHg 47%
    03:00 +30°C° 0 mm 7 mps 753 mmHg 48%
    04:00 +30°C° 0 mm 7 mps 754 mmHg 49%
    05:00 +30°C° 0 mm 7 mps 754 mmHg 50%
    06:00 +30°C° 0 mm 7 mps 754 mmHg 52%
    07:00 +33°C° 0 mm 6 mps 754 mmHg 47%
    08:00 +34°C° 0 mm 6 mps 754 mmHg 43%
    09:00 +36°C° 0 mm 6 mps 754 mmHg 39%
    10:00 +38°C° 0 mm 6 mps 754 mmHg 36%
    11:00 +39°C° 0 mm 7 mps 754 mmHg 33%
    12:00 +40°C° 0 mm 7 mps 753 mmHg 31%
    13:00 +40°C° 0 mm 8 mps 753 mmHg 30%
    14:00 +40°C° 0 mm 8 mps 753 mmHg 30%
    15:00 +40°C° 0 mm 9 mps 752 mmHg 30%
    16:00 +39°C° 0 mm 9 mps 752 mmHg 33%
    17:00 +38°C° 0 mm 9 mps 752 mmHg 35%
    18:00 +37°C° 0 mm 9 mps 752 mmHg 38%
    19:00 +34°C° 0 mm 8 mps 752 mmHg 41%
    20:00 +33°C° 0 mm 8 mps 752 mmHg 43%
    21:00 +32°C° 0 mm 7 mps 753 mmHg 46%
    22:00 +32°C° 0 mm 6 mps 753 mmHg 47%
    23:00 +32°C° 0 mm 6 mps 752 mmHg 48%

    Day after tomorrow, 25 July, Tuesday

    Time Temperature Precipitation Wind Pressure Humidity
    00:00 +30°C° 0 mm 5 mps 752 mmHg 49%
    01:00 +30°C° 0 mm 4 mps 752 mmHg 52%
    02:00 +29°C° 0 mm 4 mps 752 mmHg 54%
    03:00 +29°C° 0 mm 3 mps 752 mmHg 56%
    04:00 +29°C° 0 mm 3 mps 752 mmHg 57%
    05:00 +29°C° 0 mm 3 mps 752 mmHg 58%
    06:00 +29°C° 0 mm 3 mps 752 mmHg 58%
    07:00 +30°C° 0 mm 3 mps 752 mmHg 52%
    08:00 +33°C° 0 mm 3 mps 752 mmHg 46%
    09:00 +35°C° 0 mm 3 mps 752 mmHg 39%
    10:00 +36°C° 0 mm 3 mps 751 mmHg 35%
    11:00 +37°C° 0 mm 2 mps 751 mmHg 30%
    12:00 +39°C° 0 mm 2 mps 750 mmHg 26%
    13:00 +39°C° 0 mm 3 mps 750 mmHg 25%
    14:00 +41°C° 0 mm 4 mps 750 mmHg 24%
    15:00 +41°C° 0 mm 5 mps 749 mmHg 23%
    16:00 +40°C° 0 mm 6 mps 749 mmHg 26%
    17:00 +39°C° 0 mm 6 mps 749 mmHg 28%
    18:00 +38°C° 0 mm 7 mps 749 mmHg 30%
    19:00 +36°C° 0 mm 6 mps 750 mmHg 33%
    20:00 +35°C° 0 mm 6 mps 750 mmHg 37%
    21:00 +34°C° 0 mm 5 mps 751 mmHg 40%
    22:00 +33°C° 0 mm 4 mps 751 mmHg 43%
    23:00 +31°C° 0 mm 3 mps 751 mmHg 46%

    26 July, Wednesday

    Time Temperature Precipitation Wind Pressure Humidity
    00:00 +30°C° 0 mm 3 mps 751 mmHg 49%
    01:00 +30°C° 0 mm 3 mps 751 mmHg 50%
    02:00 +29°C° 0 mm 2 mps 750 mmHg 51%
    03:00 +29°C° 0 mm 2 mps 750 mmHg 52%
    04:00 +29°C° 0 mm 2 mps 750 mmHg 50%
    05:00 +30°C° 0 mm 2 mps 751 mmHg 48%
    06:00 +30°C° 0 mm 2 mps 751 mmHg 46%
    07:00 +32°C° 0 mm 2 mps 751 mmHg 40%
    08:00 +35°C° 0 mm 3 mps 751 mmHg 35%
    09:00 +37°C° 0 mm 3 mps 751 mmHg 30%
    10:00 +38°C° 0 mm 2 mps 751 mmHg 27%
    11:00 +39°C° 0 mm 2 mps 751 mmHg 25%
    12:00 +40°C° 0 mm 2 mps 751 mmHg 22%
    13:00 +41°C° 0 mm 2 mps 751 mmHg 22%
    14:00 +42°C° 0 mm 3 mps 750 mmHg 22%
    15:00 +43°C° 0 mm 4 mps 750 mmHg 22%
    16:00 +42°C° 0 mm 5 mps 750 mmHg 24%
    17:00 +41°C° 0 mm 6 mps 751 mmHg 26%
    18:00 +39°C° 0 mm 7 mps 751 mmHg 28%
    19:00 +38°C° 0 mm 6 mps 751 mmHg 31%
    20:00 +36°C° 0 mm 6 mps 752 mmHg 33%
    21:00 +35°C° 0 mm 5 mps 753 mmHg 35%
    22:00 +34°C° 0 mm 4 mps 753 mmHg 37%
    23:00 +33°C° 0 mm 4 mps 753 mmHg 38%

    27 July, Thursday

    Time Temperature Precipitation Wind Pressure Humidity
    00:00 +33°C° 0 mm 3 mps 752 mmHg 39%
    01:00 +31°C° 0 mm 2 mps 753 mmHg 40%
    02:00 +31°C° 0 mm 2 mps 753 mmHg 40%
    03:00 +30°C° 0 mm 2 mps 753 mmHg 41%
    04:00 +31°C° 0 mm 2 mps 753 mmHg 40%
    05:00 +31°C° 0 mm 2 mps 753 mmHg 39%
    06:00 +32°C° 0 mm 1 mps 754 mmHg 38%
    07:00 +35°C° 0 mm 2 mps 754 mmHg 34%
    08:00 +36°C° 0 mm 2 mps 754 mmHg 30%
    09:00 +38°C° 0 mm 2 mps 754 mmHg 27%
    10:00 +39°C° 0 mm 2 mps 754 mmHg 25%
    11:00 +41°C° 0 mm 2 mps 754 mmHg 22%
    12:00 +42°C° 0 mm 2 mps 754 mmHg 20%
    13:00 +43°C° 0 mm 4 mps 754 mmHg 20%
    14:00 +43°C° 0 mm 5 mps 754 mmHg 20%
    15:00 +45°C° 0 mm 6 mps 753 mmHg 19%
    16:00 +44°C° 0 mm 7 mps 754 mmHg 21%
    17:00 +43°C° 0 mm 7 mps 754 mmHg 22%
    18:00 +40°C° 0 mm 8 mps 754 mmHg 23%
    19:00 +39°C° 0 mm 7 mps 755 mmHg 25%
    20:00 +38°C° 0 mm 6 mps 755 mmHg 27%
    21:00 +36°C° 0 mm 5 mps 755 mmHg 29%
    22:00 +35°C° 0 mm 5 mps 755 mmHg 30%
    23:00 +34°C° 0 mm 4 mps 755 mmHg 31%

    28 July, Friday

    Time Temperature Precipitation Wind Pressure Humidity
    00:00 +34°C° 0 mm 3 mps 755 mmHg 32%
    01:00 +33°C° 0 mm 3 mps 755 mmHg 33%
    02:00 +33°C° 0 mm 3 mps 755 mmHg 33%
    03:00 +31°C° 0 mm 3 mps 755 mmHg 34%
    04:00 +33°C° 0 mm 3 mps 756 mmHg 33%
    05:00 +33°C° 0 mm 3 mps 756 mmHg 33%
    06:00 +32°C° 0 mm 2 mps 756 mmHg 33%
    07:00 +35°C° 0 mm 3 mps 756 mmHg 30%
    08:00 +37°C° 0 mm 3 mps 756 mmHg 27%
    09:00 +39°C° 0 mm 3 mps 757 mmHg 24%
    10:00 +41°C° 0 mm 4 mps 756 mmHg 23%
    11:00 +42°C° 0 mm 4 mps 756 mmHg 22%
    12:00 +43°C° 0 mm 5 mps 756 mmHg 21%
    13:00 +44°C° 0 mm 6 mps 756 mmHg 22%
    14:00 +44°C° 0 mm 7 mps 756 mmHg 23%
    15:00 +44°C° 0 mm 7 mps 756 mmHg 24%
    16:00 +43°C° 0 mm 7 mps 756 mmHg 27%
    17:00 +40°C° 0 mm 7 mps 756 mmHg 29%
    18:00 +39°C° 0 mm 7 mps 756 mmHg 32%
    19:00 +38°C° 0 mm 6 mps 756 mmHg 34%
    20:00 +36°C° 0 mm 5 mps 757 mmHg 36%
    21:00 +34°C° 0 mm 4 mps 757 mmHg 38%
    22:00 +34°C° 0 mm 4 mps 757 mmHg 39%
    23:00 +33°C° 0 mm 3 mps 757 mmHg 40%
    Show more